Wind_Speed
15 16 16 17 18 18 19 19 20 21 23 24 25 25 26 26 27 28 29 30 31 33 35 36 38 40 42 44 46 48 49 49 50 50 50 50 52 52 50 48 47 46 44 42 41 40 39 37 36 36 35 34 33 31 29 27 25 24 24 23 23 21 19 18 14 11 12 11 9 6 5 8 7 9 10 12 15 17 16 14 14 15 17 17 16 16 15 13
19 19 19 20 20 21 21 22 22 23 24 25 26 27 28 28 28 29 29 30 31 33 34 36 37 39 41 43 44 46 49 50 50 50 50 52 54 53 50 49 48 47 46 44 43 42 41 39 37 36 36 35 34 32 30 29 26 25 25 23 23 23 21 19 14 11 13 15 11 7 6 8 7 7 9 11 14 16 16 14 13 15 16 17 16 16 15 14
22 22 23 23 23 23 24 24 25 26 26 27 28 29 30 31 31 31 31 31 32 33 34 36 37 38 40 42 44 45 47 49 51 50 51 54 55 53 51 50 49 48 47 46 44 43 42 40 38 37 36 36 35 33 31 30 29 27 27 24 23 23 21 17 11 8 13 14 10 8 9 8 7 6 6 10 13 15 16 14 12 14 16 17 17 16 15 14
24 25 25 26 26 27 27 27 27 28 29 30 31 31 32 33 34 34 34 33 34 34 35 36 37 39 39 41 43 44 46 47 50 52 53 55 55 53 52 51 50 49 49 47 45 44 43 41 39 38 37 37 36 34 32 31 31 29 28 25 22 21 20 15 9 7 11 10 9 13 12 10 9 5 4 8 11 14 16 14 12 13 15 16 16 16 15 14
27 27 28 28 29 29 30 30 30 31 31 32 33 33 34 35 36 37 37 37 36 36 37 37 38 39 40 41 42 44 45 45 48 52 55 56 55 53 53 52 52 51 50 49 47 45 44 42 40 39 38 38 37 35 33 33 32 30 29 27 20 19 20 16 12 11 11 10 13 16 12 10 10 3 4 6 9 12 15 14 13 12 14 15 16 15 15 15
30 30 31 31 32 32 33 33 34 34 34 35 35 36 36 37 38 39 40 40 40 40 39 39 40 40 41 41 42 43 44 45 48 51 55 56 54 54 54 54 53 52 51 50 48 46 45 44 42 40 40 39 39 37 35 34 35 32 31 30 23 20 22 22 20 14 12 13 15 15 12 12 9 2 2 5 7 10 13 14 13 12 13 14 15 15 15 15
32 33 33 34 34 35 36 36 37 37 38 38 38 39 39 39 40 41 42 43 43 44 43 42 43 42 43 42 42 43 43 45 47 50 55 55 54 55 55 55 55 54 53 50 48 47 46 45 43 42 42 41 40 39 37 36 37 35 33 32 28 23 24 27 25 18 14 15 15 15 14 14 10 3 1 3 5 7 11 13 13 11 12 12 14 14 14 15
34 35 36 36 37 37 38 39 40 40 41 41 41 42 42 43 43 44 44 45 46 47 47 47 46 45 45 44 44 44 43 45 47 50 53 54 54 56 56 56 56 55 53 51 49 48 47 47 45 43 43 43 42 40 39 38 39 40 36 33 30 27 25 27 29 22 18 18 16 16 16 16 12 6 3 3 3 5 9 11 12 11 10 11 12 13 14 15
36 37 37 38 39 39 40 41 42 43 44 44 44 45 46 46 47 47 47 48 48 49 50 51 50 49 48 47 47 44 43 46 47 50 52 52 54 57 58 58 57 56 54 52 51 50 49 48 46 45 45 44 43 42 41 40 41 42 40 35 32 30 27 27 31 28 24 19 14 15 18 18 13 8 5 3 2 4 7 9 11 10 9 10 11 13 13 15
38 39 39 40 41 41 42 43 44 45 46 47 48 48 49 50 50 51 50 50 51 52 52 53 53 53 51 50 49 45 45 47 47 50 52 52 53 57 58 58 58 57 55 54 52 50 50 49 47 46 46 46 45 44 43 42 42 43 41 38 35 33 30 27 30 31 26 18 14 17 19 18 14 9 6 4 2 3 5 7 9 9 9 9 10 12 13 14
39 40 41 41 42 43 44 45 46 47 48 49 51 52 53 53 54 54 54 53 53 54 54 55 56 56 55 54 50 47 48 49 48 51 52 52 54 56 58 59 59 58 56 55 53 52 51 50 48 48 48 47 46 46 45 43 43 44 43 40 36 34 33 30 28 28 25 20 17 19 21 18 14 11 7 5 3 2 3 5 7 8 7 8 9 11 12 13
41 41 42 43 43 44 45 46 47 49 50 52 54 55 56 57 58 58 57 57 56 56 56 56 57 58 58 57 52 51 52 51 49 51 52 52 54 55 57 59 59 58 57 56 55 53 52 51 50 49 48 48 48 48 47 45 44 46 46 43 38 35 35 32 28 27 24 21 21 20 20 18 15 12 9 7 5 3 2 3 5 6 6 7 8 10 12 13
41 42 43 43 44 45 46 48 49 51 53 55 57 59 60 61 61 60 60 58 57 57 57 57 58 59 60 58 56 56 55 52 52 52 52 53 54 55 57 58 60 60 59 58 57 55 54 53 51 50 50 50 50 50 48 46 46 47 47 45 39 36 36 33 29 30 27 24 25 22 19 18 16 14 11 9 7 5 3 2 3 4 5 6 8 9 11 12
42 42 43 44 45 46 48 50 52 54 57 59 61 62 63 64 63 62 61 60 58 58 57 58 59 60 61 60 60 60 57 55 54 54 53 53 54 56 56 58 59 60 60 60 59 58 57 55 53 52 52 52 52 52 50 49 48 48 48 47 43 39 36 33 31 32 31 28 27 24 22 20 17 16 14 11 9 7 5 3 2 2 4 5 7 8 10 12
42 42 43 44 45 48 51 53 55 58 60 62 64 65 66 65 64 63 62 61 61 60 59 59 59 61 62 62 63 62 60 58 56 55 54 54 54 56 56 57 59 60 62 62 61 60 59 57 56 55 54 54 54 53 52 50 50 49 49 49 47 42 37 34 33 33 32 29 26 23 23 21 17 16 16 13 10 9 7 5 3 1 2 3 6 7 8 11
42 42 43 45 47 50 53 56 59 61 64 66 67 67 66 65 64 63 63 62 62 62 61 60 61 62 63 64 65 65 63 60 58 58 56 55 55 56 57 58 58 61 63 63 63 62 60 59 58 56 56 56 55 54 53 52 52 51 51 51 49 45 40 37 36 33 31 29 26 23 22 22 18 16 17 15 12 10 9 7 5 1 0 1 4 6 6 9
42 42 44 47 50 53 56 59 62 64 66 67 68 67 66 65 64 63 62 61 62 62 63 62 62 63 64 66 67 67 65 63 61 60 59 57 56 57 58 59 59 61 63 64 64 63 62 60 59 58 58 57 56 56 55 54 54 52 52 52 50 47 44 40 37 33 32 32 30 27 24 22 18 14 16 17 13 12 10 8 6 3 1 0 2 5 5 8
43 43 46 50 53 56 59 62 65 67 68 68 68 68 67 65 63 60 58 58 59 61 62 63 63 65 66 66 68 67 67 66 64 62 61 59 58 59 59 60 60 61 63 64 65 64 63 61 61 61 59 58 57 57 57 56 56 54 52 52 51 49 44 41 40 35 34 34 33 32 29 23 18 16 17 17 15 13 12 10 8 5 2 1 1 3 4 6
43 45 48 52 55 59 62 64 67 68 69 70 70 70 68 64 58 54 52 52 54 57 60 63 65 66 67 68 69 70 70 69 67 65 63 62 60 60 60 61 61 61 62 64 66 66 65 64 62 61 59 58 58 58 58 58 57 55 53 52 52 50 45 41 41 39 37 35 34 34 32 28 24 21 19 18 16 15 14 12 10 7 4 3 2 2 3 4
44 47 51 54 58 61 63 66 68 70 71 72 72 72 68 59 50 46 45 45 47 52 57 61 65 67 69 71 72 73 72 71 69 67 65 64 63 62 61 62 62 61 62 64 66 67 67 66 63 62 62 61 61 60 58 58 57 56 54 54 54 51 47 44 41 41 41 38 34 34 34 33 28 23 22 20 18 17 16 14 12 9 7 5 3 3 2 1
46 49 53 57 60 62 65 67 70 72 73 74 75 72 63 51 44 41 39 40 42 46 52 58 63 68 71 73 74 74 74 73 71 69 67 66 65 63 62 62 62 63 63 64 67 68 68 67 66 66 66 64 63 61 60 59 58 57 55 56 56 52 48 47 42 40 43 39 35 35 34 33 31 26 24 22 21 20 19 17 14 12 10 8 6 5 4 2
48 51 55 59 61 64 66 69 72 74 75 76 75 68 56 46 40 37 35 35 36 41 47 53 60 67 72 75 76 76 75 75 74 72 70 68 67 66 64 63 63 65 65 65 67 68 68 69 69 69 68 66 63 61 61 60 59 58 57 56 58 54 46 44 44 42 43 42 38 35 33 31 31 30 28 26 24 22 21 20 17 15 13 11 9 7 6 4
49 53 57 60 62 65 68 71 73 75 77 78 73 61 50 43 38 33 30 30 32 36 42 48 55 64 71 75 77 78 77 77 76 75 73 71 70 67 65 64 65 66 65 65 67 69 70 71 72 71 68 65 64 63 63 62 61 61 60 58 60 59 49 42 42 44 45 45 42 36 32 30 29 29 29 28 25 23 24 23 20 18 16 14 12 9 8 7
51 54 58 61 64 67 70 72 75 77 78 77 68 55 46 41 35 29 27 26 27 31 37 44 50 59 68 74 79 80 79 79 78 77 75 73 71 69 68 67 66 67 67 67 68 70 72 74 75 72 68 67 67 66 65 64 64 63 62 61 61 63 58 47 41 44 46 46 44 37 34 32 31 31 31 29 28 26 26 25 23 21 19 17 15 11 10 8
52 56 59 63 66 69 71 74 76 78 79 75 62 50 44 40 33 27 24 23 24 27 32 39 45 53 62 72 78 80 80 80 79 79 76 74 72 72 71 69 67 68 69 70 71 72 74 74 74 72 70 70 69 68 66 65 65 65 64 63 62 64 65 55 46 46 48 47 45 40 38 36 34 35 34 31 30 29 28 26 25 23 21 19 17 14 12 10
53 57 61 64 68 70 72 75 77 79 79 71 56 46 43 38 31 25 22 20 21 23 28 34 41 48 57 67 75 79 81 81 81 80 78 76 74 73 71 69 68 68 70 73 72 72 73 72 72 72 72 71 70 69 69 68 67 67 66 65 64 65 67 62 52 49 50 49 47 44 42 37 34 36 36 33 32 31 30 28 26 25 23 22 20 18 15 13
54 58 62 66 69 71 73 76 79 80 77 65 51 44 41 37 30 24 20 18 18 20 25 31 37 44 52 62 71 78 82 82 82 82 80 78 76 73 72 71 69 69 72 74 72 71 71 71 73 74 73 72 72 72 70 69 69 68 67 65 64 64 66 66 59 52 53 53 49 46 45 40 35 37 36 34 33 32 31 30 28 26 25 24 23 21 18 15
55 59 63 67 70 72 74 78 79 80 74 60 47 43 40 35 29 23 18 16 15 18 22 28 35 41 49 58 68 76 80 82 83 83 82 80 78 76 75 73 71 70 72 73 72 71 70 71 74 74 74 74 73 73 72 71 70 68 66 64 64 64 65 67 64 58 56 56 52 47 48 46 40 37 36 33 33 31 31 31 30 28 27 26 25 23 21 18
56 60 64 68 70 72 76 78 80 79 71 56 45 42 39 33 28 23 18 14 14 16 20 26 32 38 46 54 62 70 77 81 83 84 83 81 79 78 76 74 73 71 71 73 74 72 71 73 76 76 77 76 75 74 73 72 70 67 67 66 66 66 66 66 65 62 58 57 57 49 47 49 44 39 37 33 31 30 30 30 30 30 29 27 26 25 23 21
57 61 65 69 71 73 77 79 80 77 67 52 43 41 38 32 26 22 17 13 12 15 19 23 30 36 43 50 58 67 75 80 82 83 82 81 80 79 76 76 75 72 72 74 75 73 72 74 75 75 76 77 76 75 74 72 69 66 68 69 67 68 68 66 64 65 61 59 61 53 46 48 46 41 40 34 31 32 30 28 28 29 30 28 27 27 26 24
58 62 66 70 72 74 77 79 79 75 63 49 42 40 37 31 25 21 17 13 11 14 17 21 27 34 40 48 56 65 73 77 80 82 83 82 81 79 78 77 76 75 74 75 74 71 70 70 72 74 76 77 77 75 73 71 68 67 70 70 68 69 71 69 64 64 64 62 61 54 46 48 47 41 41 38 34 35 31 28 28 28 28 29 29 29 27 26
58 62 67 70 72 75 78 79 78 73 60 47 41 39 36 30 24 20 16 13 11 13 17 20 25 32 38 46 54 62 68 74 79 82 83 84 83 81 80 78 77 78 77 74 72 70 70 71 73 75 77 78 77 74 72 71 69 70 72 71 71 70 70 71 66 64 66 64 61 54 46 48 48 41 41 41 37 36 34 33 32 30 31 32 32 31 29 28
59 63 67 71 73 75 78 79 77 70 57 45 40 38 35 29 23 18 15 12 11 13 16 20 24 30 37 44 52 59 66 72 77 81 83 84 84 83 82 81 80 80 79 75 73 73 75 76 75 75 77 78 77 76 75 74 72 72 73 72 73 70 68 71 70 66 67 66 64 58 48 46 49 44 43 44 39 37 38 38 36 33 35 37 35 33 31 30
60 64 68 71 73 76 78 79 76 67 55 45 41 38 33 29 23 17 14 12 11 12 16 19 23 28 35 42 49 57 64 71 76 80 82 84 84 84 84 83 82 81 79 76 75 77 80 78 75 76 76 77 78 78 77 76 75 74 74 74 73 71 68 70 72 70 69 67 65 61 54 50 48 44 46 46 41 40 43 43 40 36 36 37 36 34 33 31
61 65 68 72 74 77 78 78 74 64 52 45 41 37 32 27 22 16 12 11 10 11 15 19 23 28 33 38 45 54 62 68 74 78 81 83 84 85 85 84 82 81 79 77 76 79 81 78 77 77 78 78 79 80 78 76 75 75 75 75 74 73 71 71 74 73 71 70 67 60 55 53 49 44 47 48 43 42 46 46 43 39 38 38 36 35 34 33
61 65 69 72 75 77 79 78 72 62 51 44 41 36 30 24 20 15 12 10 10 11 14 18 23 26 30 35 42 50 57 64 71 76 79 82 83 85 86 84 84 83 82 81 79 80 81 80 77 76 77 77 79 81 80 78 77 77 76 75 75 76 75 73 74 74 71 71 70 61 52 51 52 50 48 47 45 45 46 47 46 42 40 38 37 35 35 35
62 66 69 73 76 78 79 78 71 60 50 45 41 35 29 22 18 14 12 9 10 13 15 18 22 25 29 33 39 47 54 61 67 73 78 81 83 86 87 87 87 87 85 83 80 80 81 80 77 76 77 78 79 80 80 80 80 79 78 78 77 77 76 74 74 75 73 72 72 66 58 51 52 55 51 48 47 46 47 48 47 45 42 39 39 38 37 37
63 66 70 73 76 79 80 77 69 58 49 44 40 34 27 21 16 14 12 10 12 15 16 18 21 24 28 32 37 43 51 58 65 70 76 80 84 86 87 87 87 85 83 82 79 79 81 80 78 79 79 79 80 80 81 81 81 79 80 81 80 78 77 76 76 77 76 76 74 71 66 56 51 53 53 50 49 47 48 51 50 48 45 41 40 42 41 40
64 67 70 74 77 80 80 76 67 56 48 44 38 30 25 20 15 14 14 13 14 15 16 17 20 24 28 31 35 41 48 56 63 69 74 79 83 86 87 86 85 84 83 82 81 80 82 80 79 80 80 80 81 80 80 82 81 81 81 81 79 78 78 78 77 78 78 78 77 74 68 60 55 54 52 51 51 48 49 52 52 51 49 44 42 43 44 43
64 67 71 74 78 80 80 75 65 54 48 42 35 27 22 18 14 14 15 15 16 17 17 17 19 23 26 30 35 40 47 54 60 66 72 77 81 84 86 85 84 85 85 84 83 81 81 80 80 81 81 80 80 79 80 83 83 82 82 81 80 79 79 78 77 78 78 79 80 76 71 64 57 55 54 54 53 48 48 53 54 53 51 48 44 43 45 45
64 68 71 75 78 80 80 74 63 54 47 39 31 24 19 16 14 15 17 17 18 19 19 19 19 21 24 29 34 38 44 51 58 63 69 74 79 83 84 84 85 86 86 85 83 82 82 82 82 83 82 80 80 80 82 84 84 83 83 83 82 80 80 79 78 79 79 80 81 79 75 70 60 52 52 56 56 51 49 52 54 54 53 51 49 46 46 46
65 68 71 75 78 81 80 72 60 53 46 36 28 22 17 15 14 16 18 19 20 20 21 20 19 20 24 28 33 37 41 49 57 62 67 72 78 82 83 84 85 87 86 85 84 84 84 84 84 84 82 82 82 82 83 84 85 85 85 85 84 83 82 81 80 80 80 82 83 81 79 76 67 56 48 51 60 59 53 51 52 53 54 54 52 50 48 48
65 68 72 75 78 81 79 69 58 51 43 33 25 19 16 14 15 17 19 21 21 20 20 21 21 21 23 26 30 36 41 47 54 61 67 71 74 78 80 82 84 86 86 86 86 85 84 83 83 84 83 83 83 83 83 84 85 85 86 86 84 83 83 82 81 82 82 83 84 84 82 78 74 68 57 52 58 62 60 57 52 50 53 56 55 52 49 48
66 69 72 75 78 80 77 67 57 50 40 30 23 17 15 14 15 18 21 22 22 21 20 21 22 22 22 24 28 34 39 45 51 57 64 68 71 74 77 80 83 85 86 87 86 85 84 83 83 85 86 84 84 83 82 82 82 83 84 85 85 84 84 83 83 84 84 84 84 85 86 83 77 74 69 62 59 61 63 62 57 52 54 56 57 56 51 48
66 69 72 75 78 80 76 66 57 48 37 28 20 15 14 14 16 19 22 23 23 22 22 22 23 23 23 24 26 31 35 41 46 51 58 64 68 72 74 77 80 83 85 86 85 85 85 84 84 87 88 87 85 82 81 80 81 83 86 87 87 86 85 84 84 85 85 84 84 84 86 87 83 79 75 71 65 63 63 63 60 56 57 58 59 59 53 48
66 69 73 76 78 79 75 65 56 47 35 25 18 13 13 14 16 19 22 24 24 24 24 23 24 24 25 25 25 28 32 37 43 47 53 59 65 69 71 74 77 80 83 85 85 85 85 84 85 87 88 88 86 84 83 84 84 85 87 87 87 87 87 87 87 86 86 85 85 85 84 87 88 83 79 77 74 69 66 65 64 59 57 59 62 61 55 48
66 69 73 76 78 79 75 64 55 46 34 23 16 12 13 14 16 18 21 24 25 26 25 24 24 24 25 26 26 27 29 34 40 44 50 56 62 66 69 72 75 78 81 83 83 84 84 84 85 86 88 88 87 86 86 86 85 85 87 88 90 89 88 88 88 87 87 86 85 84 82 84 87 84 80 80 81 78 72 70 70 65 60 60 63 63 58 50
65 68 72 74 76 78 74 64 54 45 33 22 15 12 12 13 14 17 20 22 24 25 24 24 25 25 26 27 27 27 28 31 35 40 47 52 58 63 69 72 73 75 78 80 82 83 84 85 86 87 88 89 88 87 86 86 86 86 87 88 89 88 88 89 89 88 88 88 87 85 83 83 84 85 84 84 83 83 80 75 73 71 66 63 63 63 60 56
65 68 72 74 75 77 74 63 52 43 33 23 16 11 11 12 14 17 19 20 22 23 24 25 26 27 27 27 27 28 29 29 31 35 41 47 52 60 68 73 74 75 76 79 81 83 84 86 86 87 88 89 88 87 85 85 85 85 86 87 88 89 90 91 91 91 90 90 89 87 85 81 80 83 86 86 85 85 84 80 77 75 71 69 68 66 62 60
64 67 71 74 74 75 73 63 52 42 32 23 16 11 10 11 13 15 17 18 20 21 23 24 27 28 29 29 28 29 29 30 31 32 36 42 48 56 64 72 75 76 77 78 79 81 83 85 86 87 87 87 88 87 85 84 84 85 87 87 88 89 90 91 92 92 93 92 91 89 87 85 82 82 85 87 87 87 85 83 82 81 77 73 73 72 68 64
63 66 69 72 73 74 72 63 51 42 32 23 16 12 10 11 13 14 15 16 17 19 21 23 26 29 31 30 30 30 30 30 31 32 34 38 44 51 59 67 72 75 77 78 79 81 83 85 86 86 86 87 88 87 86 85 85 87 87 87 87 88 89 90 91 91 92 92 93 91 89 89 87 84 84 86 86 86 85 85 85 84 82 78 76 75 72 68
63 66 68 71 71 72 71 63 51 42 32 22 16 13 10 9 10 11 12 13 14 17 19 22 25 28 30 32 32 32 33 33 33 33 35 37 40 46 53 60 67 73 76 79 80 82 84 85 85 86 87 89 89 88 88 88 88 89 88 88 89 90 90 91 91 92 92 90 91 93 91 89 89 87 85 85 85 84 85 85 86 85 85 84 81 77 76 72
Wind_Direction
303 302 301 300 299 298 297 296 296 295 294 292 288 284 279 274 269 265 261 258 255 253 251 248 245 242 240 237 234 232 229 228 227 228 228 227 229 229 228 228 227 225 224 223 222 222 221 219 215 213 214 213 214 214 211 210 205 200 199 201 208 214 220 225 223 235 242 227 229 249 268 285 316 338 333 349 2 8 12 13 20 26 30 30 31 37 32 25
303 302 301 300 299 298 297 296 295 295 294 293 292 289 285 281 276 271 266 261 257 254 252 250 247 244 241 238 236 233 231 229 227 227 227 227 229 228 227 227 227 225 224 222 221 221 221 219 216 213 213 213 213 212 210 209 205 200 199 203 207 213 220 221 230 246 234 223 230 249 274 289 309 328 336 357 0 5 13 14 22 28 33 35 33 38 37 28
300 299 298 297 296 295 294 294 293 293 293 292 292 291 289 286 281 276 271 266 262 257 253 250 248 246 243 240 237 234 232 230 228 226 226 227 228 228 227 226 226 225 223 222 220 220 220 218 215 213 212 212 212 212 209 207 205 200 198 204 205 208 214 214 232 247 220 216 224 245 264 278 290 310 344 2 359 2 11 15 24 33 37 40 37 39 41 34
293 293 292 292 291 291 290 290 290 290 289 289 289 289 289 288 286 281 276 271 266 262 257 252 249 246 245 242 238 235 232 231 230 227 226 227 228 228 227 226 225 225 223 221 220 219 219 218 215 212 211 211 211 211 208 205 204 199 197 205 207 206 206 205 219 211 197 203 212 231 248 264 272 288 0 5 360 1 7 15 25 37 42 45 42 41 44 41
291 289 288 288 288 287 287 287 287 286 286 286 285 286 286 286 286 284 280 276 270 265 260 256 251 247 244 243 240 237 233 231 231 229 227 226 226 226 226 225 225 224 223 221 219 218 218 217 215 211 210 210 210 210 206 203 202 198 198 202 207 206 200 203 217 198 177 187 209 222 235 249 257 269 17 1 359 1 4 13 26 38 45 49 49 44 45 46
289 289 287 287 286 285 284 284 284 283 283 283 282 282 281 282 281 281 281 278 274 269 263 259 255 250 244 241 240 239 235 232 231 229 228 226 224 225 225 225 224 224 223 220 218 217 217 216 214 210 209 208 208 208 205 202 200 198 198 200 203 203 201 208 215 206 190 197 214 225 228 234 242 253 10 348 356 3 4 10 24 39 48 53 55 51 48 49
289 288 287 287 286 285 284 283 282 281 281 281 281 280 278 278 277 277 277 276 275 272 267 261 257 253 248 242 239 238 236 234 231 230 230 227 224 224 224 224 224 223 222 220 217 216 216 216 214 211 208 207 207 206 203 200 199 197 196 199 202 198 199 209 212 210 211 216 226 231 222 224 231 239 312 329 345 5 7 8 20 38 51 56 60 58 53 52
291 290 289 287 286 285 285 283 283 282 281 280 280 279 278 277 275 274 273 273 272 271 269 265 259 254 250 245 239 236 235 235 232 230 229 227 225 223 223 223 223 223 222 220 217 215 215 214 213 211 209 207 206 206 203 200 198 198 195 196 199 191 187 201 206 202 206 215 224 224 215 218 228 233 246 286 325 4 13 10 16 35 52 58 62 64 60 56
294 292 291 289 288 287 285 284 283 283 282 281 280 280 279 278 276 273 271 270 268 267 267 265 262 256 251 247 241 235 233 234 232 231 229 226 226 224 222 222 223 223 221 220 217 215 213 213 212 211 209 207 206 206 204 200 198 198 197 195 196 189 178 190 202 201 206 214 219 218 212 218 229 227 226 249 304 355 14 14 14 30 50 61 66 67 66 61
296 294 292 291 290 288 287 285 284 283 283 282 281 281 280 279 278 275 272 269 267 265 263 262 261 258 252 248 243 237 233 232 231 232 229 226 225 225 223 221 222 222 220 220 218 215 213 212 211 211 209 207 205 205 204 201 198 198 197 195 196 192 183 189 199 202 209 212 214 219 215 220 229 218 218 232 265 334 8 19 16 26 47 61 67 70 69 66
297 295 294 292 291 290 288 286 285 284 283 283 283 282 282 280 279 277 274 270 267 263 260 258 257 256 253 248 243 239 235 230 229 231 229 226 225 224 223 221 220 221 220 219 218 215 213 211 210 210 209 207 205 205 204 201 199 198 196 194 195 194 191 194 196 197 205 206 209 219 217 220 223 212 213 222 230 302 348 18 22 25 44 60 66 71 72 69
299 297 296 294 292 291 289 288 287 286 286 285 285 285 284 283 281 279 276 271 267 263 259 255 252 252 251 249 244 240 236 230 226 228 228 227 225 223 223 222 220 219 219 218 217 215 212 211 210 209 209 207 205 205 204 200 198 198 197 194 193 193 195 198 196 195 200 203 206 214 213 214 219 215 214 215 220 251 298 356 26 31 42 60 64 69 72 72
301 299 297 296 294 292 291 291 291 290 290 289 289 288 287 286 284 281 277 273 267 262 257 253 250 247 247 247 244 240 236 231 226 225 226 226 225 223 222 221 220 217 217 217 216 215 212 211 210 208 208 207 205 205 203 200 199 199 197 194 191 193 195 197 199 197 196 197 202 207 206 208 215 215 212 209 212 225 250 302 14 41 48 60 63 66 72 73
303 301 299 297 296 295 295 295 295 294 294 293 292 291 290 289 286 283 278 273 267 261 255 250 247 244 243 242 241 239 235 231 227 223 223 225 225 223 221 220 220 217 216 216 215 214 212 210 210 208 207 207 205 204 203 200 199 198 197 194 191 191 190 193 200 198 198 201 202 204 202 204 215 214 209 206 207 216 229 257 327 50 56 62 65 64 71 75
305 302 300 299 299 299 299 299 298 298 297 297 296 295 293 291 287 283 278 273 267 260 254 248 244 241 239 237 237 238 235 231 228 224 221 222 223 223 221 219 219 217 215 215 215 214 212 210 209 207 206 206 205 203 202 200 199 198 196 194 193 189 185 188 194 194 199 203 203 205 202 204 217 216 208 203 203 212 220 237 267 37 63 63 67 65 68 76
306 304 303 302 302 302 302 302 302 301 301 300 299 298 295 292 288 283 277 271 265 259 252 246 241 238 236 234 233 234 233 230 227 224 220 219 221 222 221 219 218 217 216 214 214 214 213 211 209 207 207 206 204 203 202 201 200 198 195 195 194 190 188 188 191 194 200 200 199 201 201 204 215 218 211 205 205 212 218 229 246 263 77 70 70 69 65 74
308 306 305 305 306 306 306 306 305 304 304 303 302 301 298 295 290 283 276 269 262 256 250 244 238 235 232 230 230 230 230 229 226 224 220 217 218 220 220 218 216 216 216 214 213 213 213 212 210 208 207 206 204 203 202 201 200 198 196 195 193 191 193 193 194 199 204 204 203 201 197 202 211 216 210 207 211 214 217 227 236 244 233 134 80 79 68 70
309 308 308 309 309 310 310 309 308 308 307 307 306 305 303 299 293 285 276 267 259 252 247 241 235 232 229 227 227 226 226 226 225 223 220 216 216 217 219 218 216 215 215 214 212 212 211 211 210 209 207 206 204 203 202 202 201 198 196 194 192 191 193 194 195 199 201 204 206 202 200 201 204 210 206 206 218 219 216 223 231 235 237 241 135 97 80 68
311 311 312 313 313 313 313 312 312 311 312 312 311 310 308 304 296 286 276 266 256 248 242 236 232 228 225 224 223 222 222 223 223 221 219 216 214 215 216 217 216 214 215 214 212 211 210 210 210 209 208 207 205 203 202 202 201 199 196 193 192 191 190 192 196 199 199 200 203 201 201 202 205 215 216 212 222 224 216 218 226 230 231 233 205 130 103 75
313 314 316 317 316 316 316 316 316 316 316 316 317 316 313 307 298 287 276 265 255 246 238 232 227 224 221 220 220 219 219 220 221 219 218 216 214 213 214 215 215 214 213 213 212 210 210 209 209 208 208 207 205 202 202 202 201 199 196 193 192 191 191 192 196 201 201 201 204 203 203 204 207 217 223 220 224 225 217 215 223 227 226 230 220 182 159 98
316 318 320 320 319 319 319 319 319 320 320 321 322 320 316 308 299 289 278 266 254 245 237 230 224 220 218 217 216 217 216 217 218 218 216 215 214 212 212 213 214 213 213 212 212 210 209 209 208 208 208 207 204 201 201 201 201 200 197 193 191 189 191 193 194 199 201 199 201 203 203 204 205 210 218 220 221 222 218 213 218 226 224 226 225 204 192 216
319 322 323 323 322 323 323 323 323 323 324 325 325 322 317 310 303 293 280 266 254 244 236 229 222 217 215 214 213 214 213 214 215 216 215 214 213 211 211 211 212 213 212 212 211 209 209 208 208 208 207 206 204 202 201 200 200 200 198 194 191 188 188 193 197 198 197 195 196 198 201 202 206 211 215 216 214 215 219 216 215 224 226 223 224 215 204 222
322 325 326 325 326 326 326 325 326 327 328 329 328 323 318 313 307 296 281 267 253 242 235 228 222 216 213 211 211 211 210 210 212 213 213 212 212 211 210 210 211 212 212 211 211 209 208 207 208 208 207 205 204 202 201 199 199 200 199 195 192 189 187 190 198 199 196 195 195 195 197 199 205 210 212 213 209 210 217 217 215 219 223 224 224 221 213 220
326 328 328 329 329 328 328 328 329 330 331 332 329 324 320 316 310 298 283 268 253 241 233 226 221 216 212 210 209 209 208 208 209 211 212 211 210 209 209 208 209 210 210 210 210 209 208 207 207 207 205 204 204 203 200 198 199 199 199 196 192 192 191 189 192 196 196 197 194 192 194 199 204 206 207 209 208 209 215 218 217 215 218 222 224 223 220 220
329 330 331 331 331 330 330 330 332 333 334 333 329 325 322 320 313 301 286 270 253 240 231 225 219 215 212 209 208 207 206 206 207 209 211 211 210 209 208 207 207 208 209 210 210 209 208 207 207 206 205 205 204 203 200 199 199 199 199 197 193 193 194 192 191 193 195 195 192 190 194 199 204 206 207 208 208 211 216 219 218 214 214 219 220 221 220 214
331 332 333 333 332 331 332 333 334 335 336 334 330 326 325 322 315 303 290 273 253 239 229 223 218 214 211 209 207 206 205 205 205 207 209 209 209 209 208 207 207 207 209 210 210 209 208 207 207 206 205 205 204 203 201 199 199 199 199 198 195 194 194 194 194 194 194 192 189 191 195 198 202 206 209 210 209 211 214 215 216 214 213 217 217 219 222 217
332 333 334 334 333 333 334 335 336 337 337 335 330 328 327 323 316 307 295 276 254 237 227 220 215 212 210 208 206 205 204 203 204 205 206 207 208 208 207 207 207 207 209 211 210 209 208 207 206 206 206 206 204 204 202 200 199 198 198 199 197 195 195 196 197 197 196 192 189 192 197 198 198 203 208 211 211 213 213 214 215 214 214 216 216 217 221 223
333 334 335 335 335 335 336 337 337 338 338 335 330 329 329 325 317 309 300 280 253 235 225 218 213 210 208 207 205 204 203 202 203 203 205 206 206 206 206 206 206 207 209 210 210 209 208 207 206 205 206 206 205 204 202 200 200 197 198 200 199 196 196 197 198 199 198 195 191 191 196 198 199 201 206 211 212 212 215 216 216 214 215 215 215 216 219 223
334 335 336 336 336 337 338 338 338 338 338 334 331 330 331 326 316 310 303 283 254 233 222 216 211 209 208 207 205 203 202 202 202 202 203 204 205 205 205 205 206 207 208 209 210 208 206 207 206 205 205 205 205 204 202 201 199 196 198 200 199 198 196 197 199 200 198 195 193 193 196 196 197 200 203 207 211 211 215 218 216 214 215 214 215 217 219 221
334 335 336 336 337 338 339 338 338 339 338 334 331 331 331 326 316 310 305 288 257 232 221 214 210 207 207 205 203 202 202 201 201 201 202 203 205 205 204 205 205 206 208 209 210 209 207 207 206 205 205 206 206 204 203 201 197 197 199 200 200 199 198 197 199 199 197 194 195 197 198 194 192 197 200 202 208 212 215 220 219 217 217 216 215 216 218 220
334 336 337 337 338 339 339 338 338 338 337 334 331 331 330 326 317 310 306 293 259 232 219 213 210 207 205 203 202 202 201 200 200 200 201 202 203 204 204 204 204 205 207 208 209 208 208 209 208 206 206 206 206 204 204 201 197 198 201 199 200 201 200 199 197 197 196 194 195 198 201 196 189 194 200 201 206 211 211 217 224 224 222 220 217 216 218 220
335 336 337 338 339 340 339 338 338 338 336 333 331 330 329 324 315 306 303 294 264 234 218 212 209 207 205 203 202 201 200 200 200 200 200 200 202 202 204 204 204 205 207 207 207 206 207 209 208 207 206 206 206 204 204 201 198 201 202 200 201 201 201 201 198 196 196 196 196 197 201 199 191 191 199 201 207 212 211 213 222 226 226 224 220 216 217 219
335 336 337 338 339 340 339 338 338 337 335 332 330 330 328 322 312 302 297 291 267 237 219 211 208 207 205 204 202 200 199 199 200 200 200 200 201 201 202 203 204 205 206 205 203 204 207 208 207 207 206 205 205 205 203 201 200 202 202 201 201 201 202 202 200 199 198 197 198 198 201 198 192 192 196 199 205 212 213 212 216 222 226 226 223 217 216 220
335 337 338 339 340 340 340 338 337 336 334 330 329 329 326 320 310 298 290 287 268 239 220 211 208 207 206 205 202 200 199 199 199 199 200 200 200 201 202 203 204 205 205 204 202 203 206 207 206 206 206 205 205 205 204 202 201 202 202 202 201 200 202 203 202 201 200 198 198 201 204 201 196 194 194 198 204 211 218 216 211 216 223 223 223 220 217 220
335 337 338 339 340 341 340 338 337 335 332 329 328 327 323 317 307 291 278 280 270 242 221 213 210 207 206 205 203 202 201 199 199 199 200 200 200 201 202 202 203 204 205 204 203 204 206 206 205 206 206 205 204 204 204 203 202 202 203 203 202 201 202 202 201 202 201 198 197 202 207 206 203 199 195 197 202 207 218 220 213 214 220 221 221 222 221 221
336 338 339 340 341 341 340 338 337 335 331 328 326 324 320 312 301 283 262 263 264 243 223 215 212 208 206 205 203 203 201 200 200 200 200 201 201 202 202 202 203 204 204 204 203 204 206 206 206 206 206 205 205 204 203 203 203 202 203 203 203 203 202 202 201 201 200 198 198 202 206 206 206 203 197 197 199 202 212 221 219 216 219 222 222 222 223 223
336 338 340 340 341 341 340 338 337 334 331 328 325 322 316 308 295 273 248 243 250 239 224 215 212 208 206 204 202 202 202 200 200 201 201 201 202 202 202 202 203 203 204 204 202 203 206 205 205 206 206 205 205 204 204 204 203 202 203 203 204 204 203 202 202 202 200 198 198 203 206 204 204 204 201 197 198 201 206 215 219 217 218 222 224 222 223 224
337 339 341 341 341 341 340 339 336 334 330 327 323 319 312 302 290 265 237 225 234 235 225 217 211 207 206 204 202 202 202 201 201 201 202 202 203 203 203 203 204 204 205 204 202 203 206 205 204 206 207 205 205 204 204 205 204 203 204 204 204 204 204 203 202 202 201 198 198 203 206 205 203 202 202 199 198 200 204 210 216 216 216 220 222 223 225 226
337 339 341 342 342 342 341 339 336 333 330 326 322 316 306 297 283 257 230 215 223 231 228 221 214 208 204 203 202 202 202 202 202 202 202 203 204 204 203 203 204 205 205 205 203 203 206 205 204 207 207 206 206 204 204 205 204 204 206 205 204 204 205 205 203 202 201 199 200 203 204 206 206 202 199 198 199 200 203 209 213 214 215 214 215 222 226 227
338 340 342 343 343 342 341 339 336 333 330 326 320 312 301 289 272 249 226 210 213 223 225 222 216 209 204 203 203 203 202 203 203 203 204 204 204 204 203 203 204 205 206 206 204 204 205 204 204 207 208 207 206 205 204 205 204 204 206 206 205 205 206 206 204 203 203 201 202 203 203 205 207 205 202 200 200 200 204 209 209 209 212 210 208 216 225 226
339 341 343 343 343 343 341 339 336 333 330 326 318 309 296 279 261 243 225 208 206 213 218 220 217 210 205 204 204 203 203 204 204 204 205 204 205 205 204 203 204 205 206 206 205 204 205 204 203 207 208 207 206 205 205 205 203 204 207 206 205 206 207 208 206 204 204 203 203 204 204 205 205 205 207 208 206 201 199 207 209 207 210 210 207 211 220 225
339 341 343 344 344 344 342 339 336 333 331 326 316 306 289 270 251 234 222 209 204 206 211 214 215 209 206 206 205 203 204 206 205 204 205 205 205 205 204 203 205 206 206 206 205 205 206 204 203 206 208 207 207 206 206 206 204 205 207 207 206 205 206 208 207 206 205 204 205 205 206 206 204 202 204 210 213 207 198 202 208 208 211 211 208 208 215 222
340 342 344 345 345 345 343 340 337 335 331 325 315 301 282 262 242 228 219 210 205 203 205 209 212 211 208 207 206 204 205 207 207 206 205 205 205 205 205 204 205 207 206 206 206 206 207 206 204 206 208 208 208 207 206 206 205 205 207 207 207 206 207 207 208 208 206 205 206 206 207 207 205 203 201 203 209 208 201 201 204 208 211 210 208 209 213 218
341 343 345 346 346 346 344 341 339 336 332 324 314 297 277 256 236 224 217 211 206 204 204 206 209 212 210 207 207 206 207 208 209 208 207 206 204 205 205 206 207 207 208 207 206 206 207 206 205 206 208 209 209 208 207 207 206 206 208 208 208 208 208 208 209 209 208 207 207 207 208 208 207 207 206 205 206 205 203 202 203 206 211 208 206 209 213 217
341 343 345 346 347 347 346 342 340 338 333 324 313 293 269 249 232 221 215 211 206 205 206 207 208 209 210 209 208 208 208 210 211 210 209 207 205 204 205 206 207 208 209 209 208 207 207 206 205 207 208 209 209 208 207 207 207 207 208 209 209 209 208 208 209 211 210 209 208 209 209 210 210 210 210 209 208 205 203 203 203 207 210 206 203 207 212 215
342 344 346 347 348 349 347 344 342 340 334 325 312 286 262 245 230 220 216 211 208 207 207 209 209 209 209 209 211 209 209 211 211 210 210 208 206 205 205 206 207 209 209 209 209 209 209 207 207 208 209 209 209 208 207 207 207 208 208 209 210 210 209 209 210 211 212 211 210 210 210 211 211 213 214 213 212 209 205 203 203 207 209 206 203 206 209 212
343 345 346 347 349 350 349 346 344 342 336 326 309 282 259 243 230 221 217 213 210 209 209 210 212 212 210 211 212 211 210 211 211 210 209 209 206 205 205 206 207 209 210 209 209 210 210 209 209 209 210 210 209 209 208 207 207 208 209 209 210 210 210 210 210 211 212 213 211 210 211 213 213 213 215 216 215 213 210 207 207 209 209 205 203 205 208 209
343 345 346 348 349 352 351 348 346 343 337 327 310 283 259 242 228 222 220 216 214 213 212 212 214 215 214 214 213 213 213 213 212 212 212 210 206 205 206 205 205 208 209 210 210 210 210 210 210 210 211 210 210 210 210 209 208 208 209 210 210 211 211 211 211 211 212 213 213 211 211 214 214 214 216 218 218 216 214 211 211 212 210 204 201 202 206 207
343 345 346 348 350 353 352 350 347 345 340 330 315 290 264 244 228 223 222 220 219 218 216 216 218 219 218 217 215 215 216 215 213 213 214 212 208 207 207 206 205 206 207 209 210 210 211 211 211 211 212 211 211 210 211 210 210 210 210 210 211 211 212 212 212 211 212 213 214 213 213 213 214 215 216 219 220 219 217 214 213 213 212 207 201 200 204 207
343 345 347 348 350 353 354 352 349 347 343 336 323 300 269 246 232 227 226 224 223 223 222 221 221 222 222 220 218 218 218 217 215 213 214 213 210 208 209 208 206 206 206 207 209 210 211 212 211 211 212 212 212 211 211 212 212 211 211 211 211 213 213 214 213 213 213 213 213 214 214 215 215 215 215 217 220 220 219 218 216 215 215 212 206 203 205 207
343 344 346 348 350 354 355 354 351 349 346 341 329 308 278 253 241 236 234 231 228 228 229 227 225 225 225 223 221 221 221 222 220 217 215 214 212 210 210 210 208 207 207 207 208 210 211 212 211 211 212 212 212 211 211 211 212 212 212 212 212 214 214 215 215 215 215 215 214 214 215 216 217 217 216 217 219 220 221 220 219 217 217 215 211 210 210 209
342 344 346 348 351 354 356 355 353 351 349 345 335 319 297 274 258 250 245 243 240 237 234 231 229 228 228 226 224 223 224 224 224 221 220 217 214 212 212 211 210 209 208 208 208 209 211 212 211 211 212 212 212 211 211 211 212 212 212 213 213 214 214 215 216 216 216 217 217 216 216 217 218 218 218 218 218 220 222 223 222 220 219 218 216 216 214 212
Height
10933 10933 10932 10932 10931 10931 10930 10929 10929 10928 10927 10926 10926 10926 10926 10926 10926 10926 10927 10927 10928 10928 10929 10930 10931 10932 10934 10936 10939 10941 10943 10945 10947 10950 10952 10953 10954 10958 10963 10967 10971 10975 10978 10982 10985 10988 10991 10994 10997 11000 11003 11005 11008 11011 11014 11017 11019 11022 11023 11025 11026 11026 11025 11025 11026 11028 11028 11029 11028 11028 11028 11028 11028 11027 11026 11025 11023 11021 11019 11017 11015 11013 11011 11009 11007 11005 11004 11003
10931 10930 10930 10929 10929 10928 10927 10927 10926 10925 10925 10924 10923 10922 10922 10922 10922 10923 10923 10923 10924 10924 10925 10926 10927 10928 10929 10931 10934 10936 10939 10941 10943 10946 10947 10948 10950 10954 10959 10963 10967 10971 10974 10978 10981 10984 10987 10991 10995 10998 11001 11003 11006 11009 11012 11015 11017 11019 11021 11022 11023 11024 11024 11025 11027 11027 11027 11028 11028 11028 11028 11028 11028 11028 11027 11026 11024 11022 11020 11018 11016 11014 11012 11010 11009 11006 11005 11004
10929 10928 10927 10926 10926 10925 10925 10924 10923 10923 10922 10921 10920 10919 10918 10918 10918 10918 10919 10919 10920 10920 10920 10921 10922 10923 10925 10926 10928 10931 10934 10936 10939 10940 10942 10943 10946 10950 10955 10959 10963 10966 10969 10973 10977 10981 10984 10988 10992 10996 10998 11001 11004 11007 11010 11013 11015 11017 11019 11020 11021 11021 11022 11024 11026 11026 11026 11027 11028 11029 11028 11029 11029 11029 11028 11026 11025 11023 11021 11019 11017 11015 11013 11011 11010 11008 11006 11005
10926 10925 10924 10923 10923 10922 10921 10921 10920 10919 10918 10918 10917 10916 10915 10914 10914 10914 10914 10915 10915 10916 10916 10916 10917 10919 10920 10921 10923 10926 10928 10932 10934 10935 10936 10939 10942 10947 10951 10954 10958 10961 10965 10969 10974 10977 10981 10985 10989 10993 10996 10999 11001 11004 11008 11011 11013 11015 11017 11018 11020 11021 11021 11024 11026 11026 11026 11027 11029 11030 11029 11029 11030 11029 11028 11027 11026 11024 11022 11020 11018 11016 11015 11013 11011 11010 11008 11006
10923 10922 10921 10920 10919 10919 10918 10917 10916 10916 10915 10914 10913 10912 10911 10911 10910 10909 10909 10910 10910 10911 10911 10912 10912 10914 10916 10917 10919 10920 10924 10927 10928 10929 10931 10934 10939 10944 10947 10950 10953 10957 10960 10965 10970 10974 10977 10981 10986 10990 10993 10996 10998 11002 11005 11008 11011 11014 11015 11017 11019 11020 11022 11024 11026 11026 11027 11028 11029 11030 11030 11030 11030 11029 11028 11027 11026 11025 11023 11021 11020 11018 11016 11015 11012 11011 11009 11008
10920 10919 10917 10917 10916 10915 10914 10913 10912 10911 10910 10910 10909 10908 10908 10907 10906 10905 10905 10904 10905 10905 10906 10907 10907 10908 10910 10912 10914 10916 10919 10921 10922 10924 10926 10929 10936 10939 10941 10945 10948 10952 10956 10961 10966 10970 10974 10978 10982 10986 10989 10992 10995 10998 11002 11005 11008 11011 11012 11015 11018 11019 11022 11024 11025 11027 11028 11028 11028 11029 11030 11030 11030 11029 11028 11028 11027 11026 11024 11022 11021 11019 11018 11016 11014 11013 11011 11010
10916 10915 10913 10912 10912 10911 10909 10908 10908 10907 10906 10905 10904 10904 10903 10903 10902 10901 10900 10899 10900 10899 10900 10901 10901 10903 10904 10906 10909 10911 10914 10916 10917 10919 10920 10926 10931 10933 10936 10940 10943 10947 10952 10957 10963 10967 10970 10974 10978 10982 10985 10988 10991 10995 10998 11001 11005 11007 11010 11014 11016 11018 11021 11022 11025 11028 11029 11028 11028 11029 11029 11030 11030 11029 11028 11028 11028 11026 11025 11024 11022 11021 11019 11018 11016 11014 11013 11011
10911 10910 10909 10908 10907 10906 10905 10903 10902 10901 10900 10899 10899 10898 10897 10897 10897 10896 10895 10894 10894 10893 10894 10894 10895 10897 10898 10900 10902 10906 10909 10910 10912 10913 10915 10921 10926 10927 10930 10934 10938 10943 10948 10954 10958 10962 10966 10970 10974 10978 10981 10985 10988 10992 10995 10998 11001 11004 11007 11011 11014 11017 11020 11022 11024 11027 11027 11027 11028 11029 11029 11030 11029 11029 11029 11028 11028 11027 11026 11024 11023 11022 11021 11019 11018 11016 11014 11013
10907 10905 10904 10902 10901 10900 10899 10898 10896 10895 10894 10893 10892 10892 10891 10890 10890 10889 10889 10888 10887 10887 10887 10887 10888 10889 10891 10894 10895 10900 10904 10904 10906 10908 10910 10916 10920 10921 10925 10929 10934 10939 10944 10949 10953 10957 10961 10965 10970 10974 10977 10981 10985 10988 10992 10995 10998 11001 11005 11009 11013 11017 11019 11021 11023 11025 11025 11026 11028 11028 11028 11029 11028 11028 11028 11028 11028 11027 11026 11025 11024 11023 11022 11021 11019 11017 11016 11014
10902 10900 10898 10897 10895 10894 10893 10891 10890 10889 10887 10886 10885 10884 10884 10882 10881 10881 10881 10881 10880 10880 10880 10880 10880 10881 10884 10886 10889 10895 10897 10898 10901 10902 10904 10910 10913 10915 10920 10924 10929 10934 10940 10944 10948 10953 10957 10962 10966 10969 10973 10977 10981 10985 10988 10992 10995 10998 11004 11008 11011 11015 11018 11019 11022 11024 11025 11027 11028 11027 11027 11028 11027 11027 11027 11028 11027 11027 11026 11026 11025 11025 11023 11022 11021 11019 11017 11016
10897 10895 10893 10891 10889 10888 10886 10885 10883 10882 10880 10878 10877 10876 10875 10874 10873 10871 10871 10872 10872 10871 10871 10872 10872 10873 10876 10878 10883 10889 10889 10891 10895 10895 10899 10904 10906 10910 10915 10919 10924 10929 10934 10939 10944 10949 10953 10957 10961 10964 10969 10974 10977 10981 10984 10989 10993 10996 11001 11005 11009 11013 11016 11017 11020 11023 11025 11026 11026 11025 11025 11026 11026 11027 11027 11027 11027 11027 11027 11026 11026 11026 11025 11023 11022 11020 11019 11017
10891 10889 10887 10885 10883 10881 10879 10877 10876 10874 10872 10870 10868 10866 10865 10864 10862 10861 10860 10860 10861 10861 10861 10862 10862 10864 10866 10869 10877 10879 10879 10884 10888 10889 10893 10897 10900 10904 10909 10914 10918 10924 10929 10934 10939 10943 10948 10952 10955 10960 10965 10970 10973 10976 10981 10986 10990 10993 10997 11002 11007 11011 11013 11016 11019 11021 11022 11023 11022 11022 11023 11025 11025 11026 11026 11027 11027 11027 11027 11027 11027 11026 11026 11025 11023 11022 11020 11019
10886 10883 10880 10878 10876 10874 10871 10870 10868 10866 10864 10861 10859 10856 10854 10852 10850 10849 10848 10848 10848 10849 10850 10851 10852 10854 10857 10862 10867 10868 10871 10877 10881 10883 10887 10890 10894 10898 10903 10908 10913 10918 10923 10928 10933 10937 10942 10946 10951 10956 10960 10964 10968 10972 10977 10983 10986 10990 10995 11000 11005 11008 11011 11015 11017 11018 11018 11018 11018 11019 11022 11022 11023 11025 11025 11026 11026 11027 11027 11027 11027 11027 11027 11025 11024 11023 11021 11020
10880 10877 10874 10872 10869 10867 10864 10862 10860 10857 10854 10851 10848 10845 10843 10840 10838 10836 10834 10834 10834 10836 10837 10839 10841 10844 10847 10852 10856 10858 10864 10869 10872 10876 10880 10884 10888 10892 10897 10902 10907 10912 10917 10921 10926 10931 10935 10940 10945 10950 10954 10959 10964 10968 10974 10979 10982 10987 10992 10998 11002 11004 11009 11013 11014 11015 11015 11015 11016 11018 11020 11020 11021 11023 11024 11025 11026 11027 11027 11027 11027 11027 11027 11026 11025 11024 11023 11021
10874 10871 10868 10865 10863 10860 10857 10854 10851 10848 10844 10841 10837 10833 10830 10827 10824 10822 10820 10819 10819 10821 10823 10827 10830 10832 10836 10841 10845 10849 10855 10860 10865 10869 10873 10878 10881 10885 10890 10895 10901 10906 10910 10915 10920 10925 10930 10934 10939 10944 10948 10953 10959 10965 10970 10975 10979 10983 10989 10994 10999 11003 11007 11010 11011 11012 11013 11014 11016 11018 11019 11020 11021 11022 11024 11024 11025 11027 11027 11027 11028 11028 11028 11027 11026 11025 11024 11022
10868 10865 10862 10859 10856 10853 10849 10846 10842 10838 10834 10830 10825 10821 10816 10812 10809 10806 10804 10803 10803 10805 10808 10812 10817 10820 10825 10830 10834 10838 10845 10852 10857 10861 10866 10871 10874 10879 10884 10889 10894 10899 10904 10908 10914 10920 10925 10929 10934 10939 10944 10949 10955 10961 10966 10971 10975 10980 10986 10991 10995 11001 11005 11007 11009 11011 11012 11014 11016 11017 11019 11019 11020 11021 11023 11024 11025 11026 11027 11027 11028 11028 11028 11028 11027 11026 11025 11023
10862 10859 10856 10853 10849 10845 10841 10837 10833 10828 10823 10818 10812 10807 10802 10797 10793 10789 10787 10786 10786 10788 10792 10797 10803 10807 10812 10817 10822 10829 10836 10842 10847 10852 10857 10863 10867 10871 10876 10881 10887 10892 10897 10903 10909 10914 10919 10925 10930 10934 10938 10944 10951 10957 10962 10967 10971 10976 10982 10987 10993 10998 11002 11004 11008 11010 11010 11012 11015 11016 11017 11017 11019 11021 11022 11023 11025 11026 11027 11027 11028 11028 11028 11028 11027 11027 11026 11025
10857 10853 10850 10846 10842 10838 10833 10828 10823 10817 10812 10805 10799 10792 10786 10780 10775 10771 10769 10768 10769 10771 10775 10782 10788 10793 10800 10807 10812 10820 10826 10831 10837 10843 10849 10855 10860 10864 10869 10875 10881 10886 10891 10897 10903 10908 10914 10919 10923 10928 10934 10940 10947 10953 10958 10962 10967 10973 10979 10985 10990 10995 10999 11003 11006 11007 11009 11011 11013 11014 11015 11017 11020 11021 11022 11023 11025 11026 11027 11027 11028 11028 11028 11029 11028 11027 11027 11026
10851 10847 10843 10839 10834 10830 10824 10819 10813 10806 10800 10793 10785 10777 10770 10763 10758 10753 10751 10751 10752 10754 10758 10765 10772 10780 10788 10794 10800 10807 10814 10820 10827 10834 10840 10847 10852 10857 10862 10868 10874 10880 10886 10891 10896 10902 10908 10913 10919 10926 10932 10936 10942 10948 10954 10959 10964 10970 10976 10982 10987 10991 10997 11001 11003 11004 11006 11009 11010 11012 11015 11017 11019 11020 11022 11023 11024 11026 11026 11027 11028 11028 11028 11029 11029 11028 11028 11027
10845 10841 10836 10832 10827 10822 10816 10809 10802 10795 10789 10780 10772 10762 10754 10748 10743 10739 10737 10736 10737 10739 10743 10749 10758 10766 10773 10780 10787 10794 10802 10810 10818 10825 10832 10838 10844 10850 10855 10861 10868 10874 10879 10885 10890 10896 10902 10908 10915 10921 10924 10928 10935 10943 10950 10956 10962 10968 10973 10979 10984 10989 10994 10998 11001 11002 11004 11006 11009 11011 11013 11016 11018 11020 11021 11023 11024 11025 11026 11027 11027 11028 11028 11029 11029 11029 11028 11028
10839 10835 10830 10824 10819 10814 10807 10800 10793 10785 10777 10768 10759 10749 10740 10735 10731 10727 10725 10724 10725 10727 10730 10736 10744 10752 10759 10767 10775 10783 10793 10801 10809 10816 10823 10830 10836 10842 10848 10855 10862 10868 10873 10878 10883 10890 10896 10903 10908 10912 10916 10922 10929 10938 10945 10951 10958 10964 10970 10975 10980 10986 10991 10995 10998 10999 11001 11005 11008 11010 11012 11014 11017 11019 11020 11021 11022 11024 11025 11026 11027 11027 11028 11029 11029 11029 11029 11029
10833 10828 10823 10817 10812 10805 10799 10792 10783 10775 10767 10757 10747 10737 10730 10725 10721 10718 10715 10714 10715 10716 10719 10724 10731 10738 10746 10755 10764 10773 10783 10791 10800 10807 10814 10821 10828 10834 10841 10848 10855 10860 10865 10871 10878 10884 10891 10897 10900 10904 10910 10918 10928 10935 10941 10947 10954 10960 10966 10972 10977 10983 10988 10992 10994 10995 10999 11003 11005 11008 11011 11013 11016 11018 11019 11019 11020 11022 11023 11024 11025 11026 11027 11028 11029 11029 11029 11029
10827 10822 10817 10810 10804 10798 10791 10783 10775 10766 10757 10747 10737 10728 10722 10717 10713 10710 10708 10707 10707 10708 10711 10715 10721 10727 10735 10744 10754 10762 10772 10781 10790 10797 10804 10811 10819 10827 10835 10841 10847 10853 10860 10866 10871 10877 10882 10887 10891 10897 10907 10917 10923 10928 10934 10942 10948 10954 10961 10967 10973 10979 10983 10985 10988 10993 10996 10998 11002 11006 11009 11012 11014 11016 11017 11017 11019 11020 11020 11021 11023 11025 11026 11027 11028 11029 11029 11029
10821 10816 10810 10804 10797 10790 10783 10775 10767 10758 10748 10738 10729 10721 10715 10710 10707 10704 10702 10701 10701 10702 10704 10707 10713 10719 10727 10736 10743 10751 10762 10772 10781 10788 10796 10803 10812 10820 10826 10832 10840 10847 10853 10858 10863 10869 10873 10877 10884 10894 10904 10911 10915 10921 10929 10936 10942 10948 10955 10962 10969 10974 10976 10979 10984 10988 10991 10994 10999 11003 11006 11008 11010 11012 11014 11015 11016 11017 11017 11019 11022 11023 11025 11027 11028 11028 11029 11029
10815 10810 10804 10797 10791 10783 10776 10768 10759 10750 10740 10731 10722 10715 10710 10705 10702 10699 10697 10696 10695 10697 10698 10702 10707 10712 10719 10726 10733 10744 10755 10764 10772 10780 10789 10798 10805 10811 10817 10826 10833 10840 10846 10849 10854 10860 10865 10872 10882 10892 10899 10904 10909 10917 10924 10931 10937 10943 10950 10956 10962 10966 10971 10975 10979 10982 10986 10991 10996 11000 11002 11005 11007 11009 11011 11012 11014 11015 11016 11019 11020 11022 11023 11025 11027 11028 11028 11029
10809 10804 10798 10791 10784 10777 10769 10761 10752 10743 10733 10724 10716 10710 10705 10701 10697 10695 10693 10692 10691 10692 10694 10697 10701 10707 10713 10719 10728 10738 10746 10755 10765 10773 10782 10791 10798 10805 10814 10822 10828 10834 10839 10841 10847 10854 10862 10872 10881 10888 10893 10898 10905 10911 10917 10924 10931 10937 10944 10950 10956 10961 10966 10971 10975 10978 10983 10988 10993 10996 10999 11002 11004 11006 11008 11010 11012 11014 11016 11018 11019 11020 11022 11024 11026 11027 11028 11028
10804 10799 10793 10786 10778 10771 10763 10754 10746 10737 10727 10718 10712 10706 10701 10697 10693 10691 10690 10688 10688 10689 10690 10693 10697 10702 10707 10713 10720 10727 10736 10748 10757 10765 10774 10782 10791 10800 10809 10815 10821 10828 10832 10836 10844 10852 10860 10869 10875 10881 10889 10895 10900 10905 10912 10919 10925 10933 10940 10947 10952 10958 10963 10967 10970 10974 10979 10984 10988 10992 10996 10998 11001 11003 11006 11008 11011 11013 11015 11016 11017 11019 11020 11022 11024 11026 11027 11028
10799 10793 10787 10780 10773 10765 10757 10749 10740 10731 10722 10714 10708 10703 10698 10694 10690 10688 10687 10686 10685 10686 10688 10690 10693 10697 10702 10706 10713 10722 10733 10743 10750 10757 10767 10775 10784 10792 10798 10807 10815 10821 10826 10833 10840 10847 10857 10864 10868 10875 10883 10888 10894 10900 10908 10914 10921 10931 10939 10944 10950 10955 10959 10963 10966 10970 10975 10981 10985 10989 10992 10994 10997 11001 11004 11006 11009 11011 11013 11014 11016 11017 11018 11020 11022 11024 11026 11027
10794 10788 10782 10775 10768 10760 10751 10743 10734 10726 10718 10710 10705 10700 10696 10692 10688 10686 10685 10684 10684 10684 10685 10687 10690 10694 10698 10703 10711 10721 10728 10735 10742 10752 10760 10769 10777 10784 10793 10803 10810 10816 10823 10829 10833 10841 10850 10854 10860 10868 10874 10881 10888 10895 10902 10908 10918 10929 10935 10939 10945 10949 10953 10958 10962 10966 10972 10977 10981 10985 10988 10991 10995 10998 11001 11005 11008 11009 11010 11012 11014 11015 11016 11018 11021 11023 11024 11026
10790 10784 10777 10770 10762 10754 10746 10738 10729 10721 10714 10707 10702 10697 10693 10690 10686 10684 10683 10682 10682 10682 10683 10685 10688 10691 10695 10701 10708 10714 10719 10728 10738 10748 10756 10765 10773 10780 10790 10797 10803 10811 10817 10821 10827 10836 10843 10848 10857 10865 10871 10877 10883 10891 10898 10906 10917 10926 10929 10933 10939 10944 10948 10952 10957 10963 10969 10973 10977 10981 10984 10988 10992 10996 10999 11002 11005 11007 11008 11010 11012 11013 11014 11016 11018 11021 11023 11024
10785 10779 10772 10765 10757 10750 10741 10733 10724 10716 10710 10704 10699 10695 10691 10687 10685 10682 10681 10681 10681 10681 10682 10684 10686 10689 10692 10698 10703 10708 10716 10726 10735 10742 10751 10760 10767 10776 10784 10790 10798 10805 10809 10814 10824 10835 10844 10851 10857 10862 10867 10873 10879 10888 10896 10905 10915 10919 10921 10929 10935 10938 10943 10948 10953 10959 10965 10969 10973 10978 10981 10985 10989 10993 10996 10999 11002 11004 11007 11009 11010 11011 11012 11014 11016 11019 11021 11023
10780 10774 10768 10760 10753 10745 10737 10728 10720 10712 10706 10701 10696 10692 10688 10686 10683 10681 10680 10679 10679 10680 10681 10682 10684 10687 10690 10694 10698 10705 10714 10722 10728 10736 10744 10751 10759 10770 10778 10785 10793 10797 10802 10811 10823 10834 10840 10843 10848 10854 10860 10867 10876 10885 10893 10902 10910 10912 10916 10923 10927 10933 10940 10945 10951 10956 10961 10966 10970 10975 10979 10982 10987 10991 10993 10997 10999 11002 11005 11007 11008 11009 11010 11011 11013 11016 11019 11021
10776 10770 10763 10756 10748 10740 10732 10723 10715 10708 10702 10697 10694 10690 10686 10683 10682 10680 10679 10678 10678 10679 10679 10681 10682 10685 10687 10690 10695 10702 10709 10715 10722 10730 10739 10746 10755 10763 10769 10777 10784 10789 10796 10806 10817 10826 10828 10832 10840 10848 10855 10863 10871 10879 10886 10894 10900 10904 10910 10917 10922 10930 10938 10943 10948 10953 10958 10962 10966 10971 10975 10979 10984 10987 10990 10994 10997 10999 11001 11003 11006 11007 11008 11009 11012 11014 11017 11019
10771 10765 10758 10751 10743 10736 10728 10719 10711 10704 10698 10694 10690 10687 10684 10681 10679 10679 10678 10677 10677 10677 10678 10679 10681 10683 10685 10689 10694 10700 10704 10710 10717 10726 10734 10742 10750 10757 10763 10770 10777 10784 10793 10801 10810 10815 10817 10824 10835 10842 10849 10857 10864 10871 10878 10886 10892 10898 10904 10910 10917 10926 10931 10937 10944 10949 10954 10959 10964 10968 10972 10976 10981 10984 10987 10990 10992 10995 10997 10999 11003 11005 11006 11008 11010 11012 11015 11017
10767 10761 10754 10746 10739 10731 10723 10715 10706 10700 10694 10690 10687 10684 10681 10678 10677 10677 10676 10676 10676 10676 10677 10677 10679 10681 10683 10688 10693 10697 10701 10708 10715 10723 10730 10738 10744 10750 10756 10764 10773 10781 10789 10797 10804 10808 10812 10820 10827 10833 10841 10850 10856 10864 10872 10881 10888 10894 10899 10905 10913 10919 10923 10930 10936 10942 10949 10955 10960 10964 10967 10971 10975 10978 10981 10985 10988 10991 10994 10996 11000 11002 11004 11006 11008 11010 11012 11014
10763 10756 10749 10741 10734 10726 10719 10710 10702 10696 10690 10686 10683 10681 10678 10676 10675 10675 10674 10674 10675 10675 10675 10676 10677 10680 10683 10687 10691 10695 10700 10707 10713 10719 10726 10733 10739 10744 10751 10760 10767 10773 10780 10787 10795 10801 10806 10814 10823 10830 10838 10845 10851 10858 10867 10875 10881 10887 10893 10901 10907 10911 10917 10925 10931 10938 10944 10950 10958 10961 10962 10964 10968 10971 10975 10979 10983 10987 10990 10993 10997 11000 11002 11004 11006 11008 11010 11011
10758 10752 10745 10737 10729 10722 10714 10705 10697 10691 10686 10682 10678 10676 10675 10673 10672 10672 10672 10672 10673 10673 10674 10674 10676 10678 10682 10685 10688 10693 10697 10703 10710 10716 10722 10727 10732 10737 10745 10752 10756 10762 10770 10778 10788 10797 10801 10809 10820 10826 10832 10838 10845 10853 10862 10867 10873 10880 10887 10892 10898 10905 10913 10920 10927 10933 10938 10945 10952 10955 10955 10957 10962 10967 10971 10975 10978 10982 10986 10990 10994 10997 11000 11002 11004 11006 11007 11008
10754 10748 10741 10733 10724 10717 10709 10700 10693 10687 10682 10678 10674 10671 10670 10669 10669 10669 10669 10670 10671 10671 10672 10673 10674 10676 10679 10682 10686 10690 10694 10699 10704 10709 10715 10720 10725 10731 10740 10747 10754 10763 10770 10777 10787 10794 10798 10807 10815 10818 10823 10831 10838 10846 10855 10860 10869 10876 10880 10883 10891 10900 10907 10913 10919 10925 10931 10938 10943 10947 10950 10954 10958 10962 10967 10971 10975 10978 10981 10985 10990 10994 10996 10999 11001 11002 11004 11005
10750 10743 10736 10728 10720 10712 10703 10695 10687 10682 10678 10674 10670 10667 10665 10665 10665 10666 10667 10668 10668 10670 10671 10671 10672 10674 10676 10680 10683 10686 10690 10695 10699 10704 10709 10714 10720 10728 10736 10744 10752 10761 10767 10773 10781 10787 10792 10802 10810 10812 10818 10826 10832 10841 10849 10856 10864 10871 10874 10881 10889 10896 10901 10907 10914 10919 10925 10931 10935 10940 10946 10951 10954 10958 10963 10968 10972 10975 10978 10981 10986 10990 10993 10996 10998 10999 11001 11002
10746 10739 10732 10724 10715 10706 10698 10690 10682 10677 10673 10668 10665 10663 10661 10661 10662 10663 10664 10665 10667 10668 10669 10669 10670 10672 10675 10677 10679 10682 10686 10691 10696 10700 10705 10710 10717 10724 10732 10741 10749 10754 10759 10766 10775 10783 10789 10798 10805 10807 10813 10822 10830 10839 10845 10848 10856 10863 10869 10877 10885 10891 10896 10902 10910 10916 10921 10927 10930 10933 10940 10946 10950 10955 10959 10964 10968 10971 10974 10977 10982 10986 10990 10993 10995 10996 10997 10999
10742 10735 10728 10720 10711 10702 10693 10684 10677 10671 10667 10663 10660 10658 10657 10657 10658 10659 10661 10663 10664 10666 10667 10668 10669 10671 10673 10674 10676 10680 10684 10687 10691 10695 10701 10708 10713 10719 10728 10737 10743 10748 10754 10762 10771 10779 10784 10791 10797 10801 10808 10817 10824 10831 10835 10841 10850 10858 10863 10869 10877 10884 10890 10896 10904 10910 10915 10921 10924 10929 10934 10939 10945 10952 10957 10961 10963 10966 10970 10975 10980 10985 10988 10990 10991 10993 10994 10996
10739 10732 10724 10716 10707 10697 10688 10679 10672 10666 10662 10658 10655 10654 10654 10654 10654 10656 10658 10660 10661 10663 10665 10666 10667 10668 10669 10670 10673 10677 10680 10682 10685 10689 10695 10700 10704 10712 10722 10731 10736 10742 10750 10757 10766 10772 10775 10782 10791 10796 10803 10810 10815 10822 10829 10837 10845 10850 10855 10861 10869 10876 10882 10889 10897 10903 10908 10914 10918 10925 10929 10931 10938 10946 10951 10954 10955 10959 10966 10972 10979 10983 10983 10984 10987 10989 10991 10993
10734 10727 10720 10712 10703 10693 10684 10675 10668 10662 10657 10654 10651 10650 10650 10650 10651 10652 10654 10656 10658 10660 10662 10664 10665 10666 10667 10668 10671 10673 10675 10677 10680 10684 10689 10694 10702 10713 10721 10728 10733 10739 10745 10751 10758 10766 10772 10781 10790 10795 10799 10804 10809 10816 10824 10831 10839 10845 10851 10858 10865 10872 10878 10884 10890 10895 10900 10906 10912 10918 10921 10925 10931 10936 10940 10943 10946 10952 10959 10966 10973 10977 10975 10977 10982 10986 10987 10989
10730 10723 10716 10709 10700 10690 10680 10671 10664 10658 10653 10650 10648 10647 10647 10647 10648 10650 10651 10653 10655 10657 10660 10661 10663 10664 10665 10666 10668 10669 10672 10674 10677 10682 10687 10693 10701 10709 10716 10723 10729 10734 10740 10746 10754 10762 10769 10778 10786 10788 10791 10797 10805 10813 10822 10830 10839 10846 10850 10855 10860 10866 10872 10878 10883 10887 10892 10899 10905 10910 10914 10919 10924 10928 10932 10935 10939 10947 10953 10960 10967 10968 10965 10970 10977 10982 10985 10988
10727 10720 10713 10705 10696 10686 10676 10666 10660 10654 10650 10647 10645 10644 10644 10645 10646 10647 10649 10650 10652 10654 10657 10658 10660 10662 10663 10664 10666 10668 10670 10672 10676 10680 10685 10691 10698 10704 10711 10719 10725 10731 10737 10743 10751 10757 10762 10770 10778 10780 10783 10791 10799 10809 10819 10827 10834 10837 10840 10846 10852 10858 10865 10872 10876 10880 10886 10893 10899 10905 10910 10914 10917 10922 10926 10930 10935 10942 10948 10955 10960 10959 10958 10965 10973 10977 10982 10986
10724 10716 10708 10700 10692 10683 10673 10663 10656 10651 10647 10644 10643 10642 10642 10642 10644 10645 10646 10648 10650 10651 10653 10656 10658 10659 10661 10663 10664 10665 10668 10669 10673 10677 10682 10687 10693 10700 10706 10712 10719 10725 10731 10738 10747 10754 10759 10767 10773 10775 10779 10787 10795 10802 10809 10814 10820 10825 10832 10840 10846 10851 10858 10863 10867 10873 10879 10886 10892 10899 10904 10907 10912 10918 10922 10925 10930 10936 10942 10948 10952 10952 10954 10962 10969 10973 10979 10983
10721 10714 10706 10697 10689 10681 10671 10661 10654 10648 10644 10642 10640 10640 10640 10640 10642 10643 10645 10647 10648 10649 10651 10653 10656 10657 10659 10660 10661 10663 10665 10667 10669 10674 10677 10681 10687 10695 10700 10706 10713 10719 10725 10735 10744 10750 10756 10763 10767 10771 10775 10782 10789 10795 10800 10807 10814 10820 10826 10832 10836 10842 10850 10855 10861 10867 10873 10880 10886 10893 10898 10902 10906 10912 10915 10919 10924 10929 10935 10940 10944 10946 10950 10957 10965 10970 10974 10976
10718 10711 10704 10697 10688 10678 10669 10659 10652 10646 10643 10640 10639 10638 10638 10639 10641 10642 10643 10645 10646 10648 10649 10651 10653 10655 10656 10658 10660 10662 10663 10665 10668 10671 10673 10677 10684 10690 10694 10699 10706 10712 10720 10729 10736 10742 10749 10754 10760 10765 10769 10776 10783 10790 10796 10803 10809 10813 10819 10825 10832 10840 10845 10850 10856 10862 10867 10873 10879 10886 10894 10898 10902 10905 10908 10912 10917 10922 10928 10933 10937 10940 10945 10951 10959 10965 10966 10968
10715 10708 10701 10694 10686 10677 10668 10659 10651 10646 10642 10639 10638 10637 10637 10638 10639 10640 10642 10643 10645 10646 10648 10649 10650 10652 10653 10655 10658 10660 10661 10663 10666 10669 10671 10675 10680 10684 10687 10691 10698 10704 10712 10720 10728 10735 10741 10747 10753 10759 10764 10771 10779 10787 10794 10800 10804 10810 10815 10821 10827 10832 10835 10839 10845 10852 10857 10863 10870 10879 10886 10890 10893 10896 10900 10905 10910 10915 10921 10927 10931 10934 10939 10945 10951 10955 10957 10959
10713 10706 10699 10691 10684 10676 10667 10658 10651 10646 10642 10639 10637 10637 10637 10638 10638 10639 10640 10642 10644 10645 10646 10647 10648 10649 10651 10653 10655 10657 10659 10661 10663 10666 10668 10671 10675 10679 10682 10687 10693 10698 10705 10712 10720 10727 10733 10738 10745 10753 10760 10767 10774 10782 10790 10796 10801 10806 10809 10814 10820 10824 10829 10834 10839 10844 10850 10855 10862 10871 10875 10878 10881 10887 10892 10897 10901 10906 10913 10919 10924 10929 10933 10939 10944 10947 10949 10952
10712 10706 10700 10692 10683 10675 10666 10658 10652 10646 10642 10639 10638 10637 10637 10637 10638 10639 10640 10641 10642 10643 10644 10645 10646 10647 10648 10650 10652 10654 10656 10658 10660 10663 10665 10667 10671 10675 10678 10683 10690 10696 10702 10707 10712 10718 10723 10729 10738 10747 10754 10759 10766 10775 10782 10787 10793 10797 10802 10810 10815 10818 10824 10830 10834 10841 10847 10851 10857 10863 10866 10870 10874 10880 10886 10890 10894 10899 10905 10911 10917 10922 10927 10932 10937 10940 10943 10947
10709 10703 10698 10691 10683 10675 10667 10659 10652 10647 10643 10640 10639 10638 10638 10638 10638 10639 10639 10640 10641 10642 10642 10643 10644 10644 10645 10647 10649 10651 10653 10655 10657 10659 10662 10664 10668 10672 10676 10680 10687 10693 10698 10702 10705 10709 10715 10722 10732 10739 10745 10750 10757 10765 10771 10776 10781 10786 10795 10802 10805 10808 10815 10821 10827 10835 10841 10847 10852 10856 10860 10865 10868 10873 10879 10883 10888 10893 10898 10904 10910 10915 10920 10925 10930 10934 10938 10942